Regional Weather Roundup
Issued by NWS

Home | Current Version | Previous Version | Text Only | Print | Product List | Glossary On
Versions: 1 2 3 4 5 6 7 8 9 10 11 12 13 14 15 16 17 18 19 20 21 22 23 24 25 26 27 28 29 30 31 32 33 34 35 36 37 38 39 40 41 42 43 44 45 46 47 48 49 50
951
ASUS43 KTOP 231502
RWRKS

STATE WEATHER ROUNDUP
NATIONAL WEATHER SERVICE DODGE CITY KS
 FOR NATIONAL WEATHER SERVICE GOODLAND KS
900 AM CST THU FEB 23 2017

NOTE:  "FAIR" INDICATES FEW OR NO CLOUDS BELOW 12,000 FEET WITH NO
SIGNIFICANT WEATHER AND/OR OBSTRUCTIONS TO VISIBILITY.

KSZ001>006-013>018-027>032-041>047-231600-
...NORTHWEST KANSAS...

CITY           SKY/WX    TMP DP  RH WIND       PRES   REMARKS
GOODLAND       CLOUDY    34  34 100 E23G32    29.57F WCI  22
HAYS           SUNNY     44  37  76 NE21      29.57F
HILL CITY      CLOUDY    39  35  86 E23G29    29.63F WCI  28
RUSSELL        SUNNY     46  37  71 NE18G25   29.57F
$$

KSZ061>065-074>080-084>089-231600-
...SOUTHWEST KANSAS...

CITY           SKY/WX    TMP DP  RH WIND       PRES   REMARKS
DODGE CITY     CLOUDY    49  37  63 NE6       29.55R
ELKHART          N/A     53  30  41 SW12        N/A
GARDEN CITY    SUNNY     45  34  65 E13       29.52F
GREAT BEND     MOSUNNY   49  37  63 E14       29.53F
LIBERAL        SUNNY     50  30  46 S12       29.54S
PRATT          CLOUDY    48  36  64 E14G20    29.53F
$$

KSZ066>073-081>083-090>101-231600-
...SOUTHEAST KANSAS...

CITY           SKY/WX    TMP DP  RH WIND       PRES   REMARKS
CHANUTE        SUNNY     58  51  78 E6        29.60F
COFFEYVILLE    SUNNY     59  54  83 SE7       29.58S
HUTCHINSON     CLOUDY    52  39  61 E18       29.55F
MEDICINE LODGE   N/A     51  40  65 E8        29.52F
NEWTON         PTSUNNY   51  40  65 E23G30    29.57F
PARSONS        SUNNY     61  53  75 VRB6      29.59F
WICHITA INTL   CLOUDY    54  42  64 NE15      29.55F
WICHITA JABRA  PTSUNNY   53  42  66 NE16      29.57S
WICHITA MCCONL PTSUNNY   54  41  61 E13       29.55F
WINFIELD       MOSUNNY   54  45  71 E8        29.54F
$$

KSZ007>012-019>026-033>040-048>060-102>105-231600-
...NORTHEAST KANSAS...

CITY           SKY/WX    TMP DP  RH WIND       PRES   REMARKS
CONCORDIA      CLOUDY    43  37  79 NE22G32   29.61F
EMPORIA        PTSUNNY   52  41  66 NE14      29.61F
LAWRENCE       PTSUNNY   51  39  63 NE17      29.67F
MANHATTAN      CLOUDY    50  37  61 E16G29    29.61F
OLATHE IND     CLOUDY    51  40  65 NE10G18   29.67S
OLATHE EXE     CLOUDY    50  41  71 NE15G21   29.68R
SALINA         CLOUDY    54  36  50 E22G38    29.54F
TOPEKA BILLARD CLOUDY    51  40  65 NE15      29.65F
TOPEKA FORBES  CLOUDY    52  38  58 E10G18    29.65F
$$




USA.gov is the U.S. government's official web portal to all federal, state and local government web resources and services.